User: anonymous   Login
Location: Fauquembergues
(50.6005°N, 2.0987°E)
Time: 13:09:47
(UTC+00:00)
Language:

SeaSat 1 - Orbit

View from above orbital plane
View from above orbital plane
View from above satellite
View from above satellite

Ground track
Ground track

The orbit data is extracted from the following two-line orbital elements,

1 10967U 78064A   20271.93914564 -.00000057 +00000-0 +23454-4 0  9996
2 10967 108.0079 285.1515 0002999 265.5720 094.5082 14.43836933219388
Epoch (UTC): 27 September 2020 22:32:22
Eccentricity: 0.0002999
inclination: 108.0079°
perigee height: 744 km
apogee height: 748 km
right ascension of ascending node: 285.1515°
argument of perigee: 265.5720°
revolutions per day: 14.43836933
mean anomaly at epoch: 94.5082°
orbit number at epoch: 21938

The dashed part of the orbit path shows where the satellite is in the earth's shadow,  

DLR